When you browse on this site, cookies collect data to enhance your experience and personalize the content and advertising you see.
Visit our Privacy Policy to learn more. By continuing to use the site, you agree to this use of cookies and data.
  • In France
  • List of Countries
  • For 7 days
  • Water Temperature
  • Weather Map
  • Weather Widgets
  • user-avatar
    Login

    Hourly Weather Olpe

    Today, 25 May, Monday

    Time Temperature Precipitation Wind Pressure Humidity
    00:00 +8°C° 0 mm 2 mps 737 mmHg 97%
    01:00 +9°C° 0 mm 1 mps 737 mmHg 99%
    02:00 +9°C° 0.1 mm 2 mps 737 mmHg 98%
    03:00 +9°C° 0.1 mm 2 mps 737 mmHg 98%
    04:00 +9°C° 0.1 mm 3 mps 737 mmHg 98%
    05:00 +9°C° 0 mm 3 mps 737 mmHg 97%
    06:00 +10°C° 0 mm 3 mps 738 mmHg 96%
    07:00 +10°C° 0 mm 3 mps 738 mmHg 96%
    08:00 +11°C° 0.1 mm 3 mps 738 mmHg 93%
    09:00 +12°C° 0.1 mm 3 mps 738 mmHg 89%
    10:00 +12°C° 0.1 mm 4 mps 739 mmHg 86%
    11:00 +14°C° 0.1 mm 4 mps 738 mmHg 77%
    12:00 +15°C° 0.1 mm 4 mps 738 mmHg 68%
    13:00 +16°C° 0.1 mm 5 mps 738 mmHg 59%
    14:00 +16°C° 0 mm 5 mps 738 mmHg 58%
    15:00 +17°C° 0 mm 5 mps 738 mmHg 56%
    16:00 +17°C° 0 mm 5 mps 738 mmHg 54%
    17:00 +17°C° 0 mm 4 mps 739 mmHg 59%
    18:00 +15°C° 0 mm 4 mps 739 mmHg 64%
    19:00 +14°C° 0 mm 3 mps 739 mmHg 68%
    20:00 +12°C° 0 mm 3 mps 739 mmHg 77%
    21:00 +10°C° 0 mm 2 mps 739 mmHg 86%
    22:00 +9°C° 0 mm 1 mps 740 mmHg 95%
    23:00 +8°C° 0 mm 1 mps 740 mmHg 96%

    Tomorrow, 26 May, Tuesday

    Time Temperature Precipitation Wind Pressure Humidity
    00:00 +8°C° 0 mm 1 mps 740 mmHg 96%
    01:00 +7°C° 0 mm 1 mps 740 mmHg 97%
    02:00 +7°C° 0 mm 1 mps 740 mmHg 97%
    03:00 +7°C° 0 mm 1 mps 740 mmHg 97%
    04:00 +6°C° 0 mm 1 mps 740 mmHg 97%
    05:00 +8°C° 0 mm 1 mps 740 mmHg 92%
    06:00 +9°C° 0 mm 1 mps 740 mmHg 87%
    07:00 +11°C° 0 mm 1 mps 740 mmHg 81%
    08:00 +13°C° 0 mm 1 mps 741 mmHg 71%
    09:00 +15°C° 0 mm 1 mps 741 mmHg 60%
    10:00 +19°C° 0 mm 1 mps 741 mmHg 50%
    11:00 +20°C° 0 mm 1 mps 741 mmHg 47%
    12:00 +21°C° 0 mm 1 mps 741 mmHg 43%
    13:00 +21°C° 0 mm 2 mps 741 mmHg 40%
    14:00 +20°C° 0 mm 2 mps 741 mmHg 43%
    15:00 +20°C° 0 mm 2 mps 740 mmHg 46%
    16:00 +19°C° 0 mm 3 mps 740 mmHg 48%
    17:00 +18°C° 0 mm 2 mps 740 mmHg 55%
    18:00 +17°C° 0 mm 2 mps 739 mmHg 62%
    19:00 +16°C° 0 mm 2 mps 739 mmHg 69%
    20:00 +14°C° 0 mm 1 mps 739 mmHg 74%
    21:00 +13°C° 0 mm 1 mps 740 mmHg 80%
    22:00 +11°C° 0 mm 1 mps 740 mmHg 85%
    23:00 +11°C° 0 mm 1 mps 739 mmHg 87%

    Day after tomorrow, 27 May, Wednesday

    Time Temperature Precipitation Wind Pressure Humidity
    00:00 +10°C° 0 mm 1 mps 739 mmHg 89%
    01:00 +10°C° 0 mm 1 mps 739 mmHg 90%
    02:00 +10°C° 0 mm 1 mps 739 mmHg 91%
    03:00 +8°C° 0 mm 0 mps 739 mmHg 91%
    04:00 +8°C° 0 mm 0 mps 739 mmHg 91%
    05:00 +10°C° 0 mm 0 mps 739 mmHg 85%
    06:00 +12°C° 0 mm 0 mps 739 mmHg 79%
    07:00 +13°C° 0 mm 0 mps 739 mmHg 73%
    08:00 +15°C° 0 mm 0 mps 739 mmHg 65%
    09:00 +19°C° 0 mm 1 mps 740 mmHg 56%
    10:00 +19°C° 0 mm 2 mps 740 mmHg 47%
    11:00 +20°C° 0 mm 2 mps 739 mmHg 45%
    12:00 +21°C° 0 mm 2 mps 739 mmHg 43%
    13:00 +21°C° 0 mm 2 mps 739 mmHg 41%
    14:00 +21°C° 0.1 mm 3 mps 739 mmHg 48%
    15:00 +20°C° 0.1 mm 3 mps 739 mmHg 54%
    16:00 +19°C° 0.1 mm 3 mps 738 mmHg 61%
    17:00 +18°C° 0.1 mm 3 mps 738 mmHg 67%
    18:00 +16°C° 0.1 mm 3 mps 738 mmHg 74%
    19:00 +14°C° 0.1 mm 3 mps 738 mmHg 80%
    20:00 +12°C° 0 mm 3 mps 738 mmHg 82%
    21:00 +10°C° 0 mm 3 mps 738 mmHg 85%
    22:00 +9°C° 0 mm 3 mps 739 mmHg 88%
    23:00 +7°C° 0 mm 2 mps 739 mmHg 90%

    28 May, Thursday

    Time Temperature Precipitation Wind Pressure Humidity
    00:00 +6°C° 0 mm 2 mps 739 mmHg 92%
    01:00 +5°C° 0 mm 2 mps 739 mmHg 94%
    02:00 +5°C° 0 mm 2 mps 738 mmHg 95%
    03:00 +4°C° 0 mm 2 mps 738 mmHg 96%
    04:00 +5°C° 0 mm 1 mps 738 mmHg 97%
    05:00 +5°C° 0 mm 2 mps 738 mmHg 93%
    06:00 +6°C° 0 mm 2 mps 739 mmHg 88%
    07:00 +7°C° 0 mm 2 mps 739 mmHg 84%
    08:00 +9°C° 0 mm 2 mps 739 mmHg 72%
    09:00 +12°C° 0 mm 2 mps 739 mmHg 60%
    10:00 +13°C° 0 mm 3 mps 739 mmHg 48%
    11:00 +14°C° 0 mm 3 mps 738 mmHg 46%
    12:00 +16°C° 0 mm 3 mps 738 mmHg 44%
    13:00 +16°C° 0 mm 3 mps 737 mmHg 41%
    14:00 +17°C° 0 mm 4 mps 737 mmHg 43%
    15:00 +17°C° 0 mm 4 mps 737 mmHg 44%
    16:00 +17°C° 0 mm 4 mps 736 mmHg 45%
    17:00 +14°C° 0 mm 4 mps 736 mmHg 51%
    18:00 +13°C° 0 mm 3 mps 736 mmHg 57%
    19:00 +12°C° 0 mm 3 mps 736 mmHg 63%
    20:00 +10°C° 0 mm 3 mps 736 mmHg 73%
    21:00 +8°C° 0 mm 2 mps 735 mmHg 83%
    22:00 +6°C° 0 mm 1 mps 735 mmHg 93%
    23:00 +6°C° 0 mm 1 mps 735 mmHg 94%

    29 May, Friday

    Time Temperature Precipitation Wind Pressure Humidity
    00:00 +5°C° 0 mm 1 mps 735 mmHg 96%
    01:00 +5°C° 0 mm 1 mps 735 mmHg 97%
    02:00 +4°C° 0 mm 1 mps 735 mmHg 97%
    03:00 +4°C° 0 mm 1 mps 734 mmHg 97%
    04:00 +4°C° 0 mm 1 mps 734 mmHg 98%
    05:00 +5°C° 0 mm 1 mps 734 mmHg 94%
    06:00 +6°C° 0 mm 1 mps 734 mmHg 90%
    07:00 +6°C° 0 mm 2 mps 734 mmHg 86%
    08:00 +8°C° 0 mm 2 mps 734 mmHg 79%
    09:00 +9°C° 0 mm 2 mps 734 mmHg 72%
    10:00 +12°C° 0 mm 2 mps 734 mmHg 65%
    11:00 +12°C° 0 mm 3 mps 733 mmHg 60%
    12:00 +14°C° 0 mm 3 mps 733 mmHg 55%
    13:00 +16°C° 0 mm 3 mps 732 mmHg 50%
    14:00 +16°C° 0.1 mm 3 mps 732 mmHg 52%
    15:00 +16°C° 0.1 mm 3 mps 732 mmHg 53%
    16:00 +15°C° 0.1 mm 4 mps 731 mmHg 55%
    17:00 +14°C° 0.1 mm 3 mps 731 mmHg 59%
    18:00 +13°C° 0.1 mm 3 mps 731 mmHg 63%
    19:00 +12°C° 0.1 mm 3 mps 731 mmHg 67%
    20:00 +10°C° 0 mm 2 mps 732 mmHg 75%
    21:00 +8°C° 0 mm 2 mps 732 mmHg 83%
    22:00 +7°C° 0 mm 1 mps 732 mmHg 91%
    23:00 +7°C° 0 mm 1 mps 732 mmHg 91%

    30 May, Saturday

    Time Temperature Precipitation Wind Pressure Humidity
    00:00 +6°C° 0 mm 1 mps 732 mmHg 92%
    01:00 +6°C° 0 mm 1 mps 732 mmHg 92%
    02:00 +5°C° 0 mm 1 mps 732 mmHg 92%
    03:00 +5°C° 0 mm 1 mps 732 mmHg 92%
    04:00 +5°C° 0 mm 1 mps 732 mmHg 92%
    05:00 +7°C° 0 mm 1 mps 732 mmHg 82%
    06:00 +9°C° 0 mm 1 mps 733 mmHg 73%
    07:00 +11°C° 0 mm 1 mps 733 mmHg 63%
    08:00 +13°C° 0 mm 2 mps 733 mmHg 57%
    09:00 +14°C° 0 mm 2 mps 733 mmHg 51%
    10:00 +16°C° 0 mm 3 mps 733 mmHg 45%
    11:00 +16°C° 0 mm 3 mps 733 mmHg 45%
    12:00 +17°C° 0 mm 3 mps 733 mmHg 45%
    13:00 +17°C° 0 mm 3 mps 732 mmHg 45%
    14:00 +17°C° 0 mm 3 mps 732 mmHg 45%
    15:00 +17°C° 0 mm 3 mps 732 mmHg 46%
    16:00 +18°C° 0 mm 3 mps 732 mmHg 46%
    17:00 +17°C° 0 mm 3 mps 731 mmHg 51%
    18:00 +16°C° 0 mm 2 mps 731 mmHg 56%
    19:00 +15°C° 0 mm 2 mps 731 mmHg 62%
    20:00 +13°C° 0 mm 2 mps 731 mmHg 72%
    21:00 +10°C° 0 mm 2 mps 731 mmHg 81%
    22:00 +9°C° 0 mm 1 mps 731 mmHg 91%
    23:00 +9°C° 0 mm 1 mps 731 mmHg 92%
    Show more